This demonstration page uses our WeatherBlox Daily Observations layout. Learn more.

Left ArrowRight Arrow

Hourly Observations for April 23, 2015

Temp ( °F °C ) Dew Point ( °F °C ) Humidity (%) Winds ( mph kmh ) Pressure ( in mb ) Visibility ( mi km ) Precip ( " mm )
12:51 am 00:51 Clear 57 13.9 19 -7.2 23 23 NW 8 13 29.76 1008 10 16 N/A
1:51 am 01:51 Clear 54 12.2 19 -7.2 25 25 ESE 7 11 29.76 1008 10 16 N/A
2:51 am 02:51 Clear 50 10 18 -7.8 28 28 ESE 8 13 29.77 1008 10 16 N/A
3:51 am 03:51 Clear 51 10.6 19 -7.2 28 28 ENE 3 6 29.76 1008 10 16 N/A
4:51 am 04:51 Clear 48 8.9 19 -7.2 32 32 E 6 9 29.78 1008 10 16 N/A
5:51 am 05:51 Sunny 49 9.4 20 -6.7 32 32 E 6 9 29.78 1009 10 16 N/A
6:51 am 06:51 Sunny 56 13.3 22 -5.6 27 27 S 3 6 29.80 1009 10 16 N/A
7:51 am 07:51 Sunny 65 18.3 24 -4.4 21 21 ESE 9 15 29.80 1009 10 16 N/A
8:51 am 08:51 Sunny 70 21.1 30 -1.1 23 23 ESE 10 17 29.79 1009 10 16 N/A
9:51 am 09:51 Sunny 73 22.8 33 0.6 23 23 S 10 17 29.78 1008 10 16 N/A
10:51 am 10:51 Sunny 76 24.4 27 -2.8 16 16 S 10 17 29.76 1008 10 16 N/A
11:51 am 11:51 Sunny 78 25.6 25 -3.9 14 14 S 13 20 29.72 1007 10 16 N/A
12:51 pm 12:51 Sunny 79 26.1 26 -3.3 14 14 undefined N/A 29.70 1006 10 16 N/A
1:51 pm 13:51 Partly Cloudy 82 27.8 24 -4.4 12 12 S 15 24 29.66 1004 10 16 N/A
2:32 pm 14:32 Mostly Sunny 83 28.3 22 -5.6 10 10 SSW 22 35 29.53 1000 10 16 N/A
2:51 pm 14:51 Sunny 80 26.7 23 -5 12 12 SW 18 30 29.64 1004 10 16 N/A
3:51 pm 15:51 Mostly Sunny 80 26.7 22 -5.6 11 11 WSW 12 19 29.62 1003 10 16 N/A
4:51 pm 16:51 Sunny 79 26.1 18 -7.8 10 10 WSW 14 22 29.62 1003 10 16 N/A
5:51 pm 17:51 Sunny 76 24.4 20 -6.7 12 12 WSW 13 20 29.63 1003 10 16 N/A
6:51 pm 18:51 Sunny 73 22.8 20 -6.7 13 13 WSW 7 11 29.63 1004 10 16 N/A
7:51 pm 19:51 Mostly Clear 71 21.7 25 -3.9 18 18 WNW 9 15 29.66 1004 10 16 N/A
8:51 pm 20:51 Clear 69 20.6 30 -1.1 23 23 WNW 15 24 29.67 1005 10 16 N/A
9:51 pm 21:51 Clear 67 19.4 32 undefined 27 27 NW 16 26 29.70 1006 10 16 N/A
10:51 pm 22:51 Mostly Clear 66 18.9 32 undefined 28 28 NW 15 24 29.71 1006 10 16 N/A
11:51 pm 23:51 Mostly Clear 63 17.2 33 0.6 33 33 NW 13 20 29.72 1006 10 16 N/A

Powered by AerisWeather